Wind_Speed
31 32 32 32 33 33 31 27 25 25 25 25 25 24 23 22 21 20 19 18 17 16 15 14 13 12 12 11 11 10 10 9 8 7 7 7 7 6 6 6 7 7 8 8 9 9 9 10 10
33 34 34 34 35 33 31 29 27 27 27 27 26 26 25 24 23 22 21 20 19 18 17 16 15 14 14 13 12 12 11 11 10 10 9 9 9 8 8 8 9 9 9 9 10 10 10 11 11
35 35 36 36 36 33 31 29 29 29 28 28 28 27 26 25 24 23 22 21 21 20 19 18 17 16 16 15 14 13 13 12 12 12 12 11 11 11 10 10 10 10 10 11 11 11 12 12 13
36 37 38 38 36 33 31 31 31 30 29 29 29 28 27 26 25 24 23 23 22 21 20 20 19 18 17 16 16 15 14 14 13 13 13 13 12 12 12 12 12 12 12 13 13 13 14 14 14
38 38 39 38 36 33 32 32 32 31 31 30 29 29 28 27 27 26 25 24 23 23 22 21 20 20 19 18 17 16 16 15 15 15 14 14 14 14 14 14 14 14 14 15 15 15 15 16 16
39 40 40 38 36 34 33 33 33 33 32 32 31 30 29 28 28 27 26 25 25 24 24 22 22 21 20 19 19 18 17 17 16 16 16 16 15 15 15 15 15 15 15 16 16 16 17 17 18
40 40 40 38 36 35 35 35 35 34 34 33 32 31 30 29 29 28 27 27 26 25 25 24 24 23 22 21 20 19 19 18 18 17 17 17 17 16 17 17 17 17 17 17 17 17 18 18 19
41 41 40 39 36 35 36 37 36 36 35 35 34 32 31 31 30 29 29 28 27 27 26 26 25 25 24 23 22 21 20 20 20 19 19 19 19 19 19 19 19 19 19 19 19 19 20 20 21
41 42 40 37 36 36 37 38 38 37 37 36 35 34 33 32 31 30 30 30 29 28 28 27 27 26 25 24 24 23 22 22 22 21 21 21 21 21 20 21 21 21 21 21 21 21 22 22 23
42 42 39 37 37 37 37 38 39 39 38 37 36 35 34 33 32 31 31 30 30 30 29 29 28 28 27 26 25 25 24 24 23 23 23 23 22 22 22 22 22 23 23 23 23 23 24 24 24
43 41 39 38 37 37 38 38 39 39 39 38 37 36 35 34 33 31 31 31 31 30 30 30 29 28 28 27 27 26 26 26 25 25 25 24 24 24 24 24 24 24 24 24 25 25 25 25 25
43 41 40 39 38 38 38 39 39 39 39 38 38 36 36 35 33 32 32 31 31 31 30 30 29 29 29 28 28 28 27 27 27 27 27 26 26 26 26 26 26 26 26 26 26 26 26 27 27
44 42 42 41 40 39 40 40 40 39 38 38 38 37 36 35 34 34 33 33 32 32 31 31 30 30 30 30 29 29 28 28 28 28 28 28 28 27 27 27 27 27 27 27 28 28 28 28 28
45 44 43 42 42 41 41 41 41 39 38 38 38 38 36 35 35 34 34 33 32 32 32 32 31 31 30 30 30 30 29 29 28 28 28 28 28 28 28 28 29 29 29 29 29 29 29 30 30
46 46 45 44 43 43 42 42 41 39 39 39 39 38 37 36 35 35 34 34 33 32 32 32 32 32 32 31 31 31 30 30 30 29 29 29 29 29 30 30 30 30 30 31 31 31 31 31 32
48 48 47 45 44 44 44 42 39 41 41 40 39 38 38 37 36 36 36 35 34 34 33 33 33 33 33 33 32 32 31 31 31 31 31 31 31 31 31 31 32 32 32 32 32 32 33 33 34
49 49 47 45 45 44 45 42 40 41 42 41 40 39 38 38 37 37 37 36 36 35 35 34 34 34 34 34 34 33 33 32 32 33 33 33 33 33 33 33 33 34 34 34 34 34 34 35 35
48 48 47 46 46 45 45 43 42 42 42 41 41 40 39 38 38 38 38 37 37 36 36 35 35 35 35 35 35 34 34 34 34 34 34 34 34 35 35 35 35 36 36 36 36 36 36 36 37
48 47 47 46 46 47 47 45 44 44 43 41 41 40 40 39 39 39 39 38 38 37 37 36 36 36 36 36 36 36 35 35 35 35 35 35 35 36 36 36 37 37 37 37 37 37 37 38 38
48 48 47 47 47 47 48 47 45 45 43 42 41 41 41 41 41 40 39 38 38 38 37 37 37 37 37 37 37 37 37 37 37 37 36 36 37 37 37 37 37 37 37 37 38 39 39 39 40
47 47 46 46 47 47 48 48 47 46 45 44 43 42 42 42 41 40 40 39 39 38 38 38 38 38 37 38 38 37 38 38 38 38 38 38 38 38 38 38 38 38 38 38 39 40 40 41 41
46 46 46 46 47 47 48 49 47 46 45 44 43 43 42 42 42 41 41 40 40 39 39 39 39 38 38 38 38 38 38 38 38 38 38 38 38 38 39 39 39 39 39 39 40 41 41 42 42
45 45 45 46 47 48 48 49 47 46 45 44 43 43 42 43 42 42 41 41 41 40 40 40 39 39 39 39 39 39 39 39 39 39 39 39 39 40 40 40 40 41 41 40 41 41 42 42 42
44 44 45 46 47 49 47 48 47 45 44 43 44 43 43 43 43 42 42 42 41 41 41 40 40 40 40 40 40 40 39 39 39 39 39 40 40 40 41 41 42 42 42 42 42 42 43 43 43
42 42 43 45 47 49 47 48 48 44 43 43 43 43 43 44 44 44 43 42 42 42 41 41 41 41 40 40 40 40 40 39 39 40 40 40 41 41 41 42 42 42 42 42 43 43 43 43 43
41 41 42 43 45 46 46 47 47 45 43 42 43 43 43 44 44 44 44 43 43 43 42 41 41 41 41 41 41 41 41 40 40 40 40 41 41 41 42 42 42 43 43 43 43 43 43 43 44
39 40 40 40 43 44 45 46 45 44 43 42 42 42 43 43 44 44 44 44 44 44 43 43 42 42 42 42 42 41 41 41 41 41 41 41 42 42 43 43 43 43 43 43 44 44 44 44 45
38 38 39 40 40 42 44 44 44 42 42 41 41 42 42 43 44 44 44 44 44 44 44 44 44 43 43 43 43 43 42 42 42 42 42 43 43 43 43 43 43 43 43 44 44 45 45 46 47
37 38 39 39 41 41 42 43 42 40 40 40 40 41 41 42 43 44 44 44 44 45 45 45 45 45 44 44 44 44 43 43 43 44 44 44 44 44 44 44 44 44 45 45 45 45 46 47 48
37 38 39 39 40 41 40 41 40 39 39 39 39 40 40 41 42 43 43 44 44 45 46 46 46 46 45 45 45 45 45 44 45 45 45 45 46 45 45 45 45 45 45 46 46 46 46 47 47
Wind_Direction
237 237 238 238 239 240 241 240 240 240 240 240 241 243 244 244 244 244 244 243 244 245 245 245 245 246 247 249 250 250 249 251 254 256 257 258 261 266 270 274 278 282 284 286 288 291 294 295 296
239 238 239 239 240 241 241 241 240 240 240 241 241 242 243 244 244 244 244 243 244 245 246 246 245 246 247 248 249 250 250 251 254 257 258 259 261 264 269 273 277 281 284 286 286 287 289 291 293
239 239 240 240 240 241 241 240 240 240 241 241 242 242 242 243 244 244 244 244 244 244 244 245 245 245 246 247 248 249 250 252 255 258 258 260 262 265 268 273 277 279 282 285 286 286 286 288 289
239 239 240 240 241 240 240 240 240 240 241 241 242 242 242 242 244 244 244 244 244 243 243 243 244 244 245 246 247 249 252 254 256 259 260 261 263 266 269 271 274 277 280 283 284 285 286 287 288
239 239 240 240 240 239 239 239 240 241 241 241 242 242 241 242 243 243 244 244 243 243 243 242 243 244 244 245 247 249 252 254 257 259 261 263 264 266 268 271 273 276 279 281 283 284 286 287 288
239 240 240 240 240 238 238 239 239 240 241 242 242 242 242 242 242 242 243 243 243 244 244 243 243 244 244 245 247 249 251 252 255 257 260 262 265 266 268 271 273 276 279 282 283 283 285 286 287
240 240 240 240 238 237 237 238 239 239 240 241 241 241 241 241 241 241 242 243 243 244 244 244 244 244 245 246 248 249 251 253 254 257 259 261 263 265 269 271 273 276 278 280 282 283 285 286 287
239 240 240 239 238 237 237 238 238 239 239 240 240 240 240 241 241 241 241 242 243 243 244 244 244 244 245 246 248 249 250 253 255 257 259 261 262 265 268 270 273 275 277 279 281 282 283 285 286
238 238 239 239 238 237 237 238 238 238 239 239 240 240 240 241 241 242 242 242 242 242 243 244 244 244 245 246 248 249 251 253 256 258 259 261 262 265 268 270 272 274 277 278 280 281 283 285 286
237 238 237 238 237 236 236 237 237 237 238 238 240 240 240 240 241 241 242 241 241 241 241 242 243 244 245 247 248 250 252 254 256 258 259 261 263 265 268 270 272 275 277 278 279 281 283 285 286
237 238 237 237 236 235 235 236 236 237 237 237 238 238 239 239 239 240 240 240 240 241 241 241 242 243 245 247 249 251 253 254 257 258 260 261 263 265 268 271 273 274 276 277 279 280 282 284 285
237 236 236 236 235 235 234 234 235 236 236 236 237 237 238 238 238 238 238 239 239 240 241 241 242 243 245 247 249 251 253 255 257 258 260 262 264 266 269 271 273 274 276 277 279 280 281 283 283
236 235 235 235 235 234 233 234 234 235 236 235 235 236 236 237 237 237 238 239 239 240 241 242 243 244 245 247 248 250 253 255 257 259 261 262 264 267 269 271 273 274 275 276 278 279 281 282 282
235 235 234 234 234 234 234 234 234 234 235 235 235 235 235 235 236 237 238 238 240 241 242 242 243 244 245 247 249 251 252 255 257 259 261 263 265 267 269 271 273 274 275 276 277 279 280 281 282
234 234 233 233 234 234 234 234 234 234 235 236 235 235 235 235 235 236 237 237 238 239 241 242 243 244 246 248 250 252 253 255 257 259 262 263 265 267 269 271 272 274 275 276 277 278 280 281 282
233 233 233 233 234 233 234 234 234 234 235 236 236 236 235 235 235 235 237 237 238 239 241 242 243 245 247 248 250 252 253 255 257 259 262 264 265 267 269 270 272 274 275 276 277 278 279 280 281
233 234 234 233 234 234 235 233 233 234 236 236 237 236 235 235 235 236 237 238 239 240 241 242 244 245 247 249 251 253 254 255 258 260 262 264 265 267 268 271 272 274 275 276 276 277 278 279 281
234 235 235 235 234 234 235 234 233 234 235 236 237 237 235 235 236 236 237 238 240 241 242 243 245 246 247 249 251 253 255 256 258 260 262 264 266 268 269 271 272 273 274 276 277 277 278 280 281
234 235 235 235 235 235 234 234 233 233 235 236 237 237 236 235 236 237 238 239 241 242 243 244 245 246 248 250 251 253 255 256 258 260 263 265 267 268 270 271 272 273 274 275 277 277 278 280 281
234 234 234 235 235 236 235 234 233 233 235 236 237 237 237 236 236 237 239 240 241 242 243 244 245 246 248 251 252 253 255 257 259 261 263 266 267 268 270 271 272 274 275 276 276 277 279 280 281
233 234 234 236 235 236 236 234 233 233 235 236 237 238 239 238 237 238 238 240 241 243 244 244 245 247 249 251 253 254 255 257 259 261 263 265 266 268 269 271 273 274 275 276 277 278 279 280 281
233 234 235 236 236 236 236 237 233 234 235 236 238 239 239 239 238 238 239 240 241 242 243 244 246 247 249 251 253 254 256 257 258 260 262 264 266 268 269 270 272 273 275 276 277 278 279 279 280
234 234 235 236 237 237 236 239 234 234 235 236 238 239 239 239 238 239 239 240 241 242 243 245 246 248 249 251 252 254 256 258 260 261 263 265 267 269 270 271 272 273 274 276 277 279 280 280 280
233 234 235 236 237 238 237 240 237 236 236 237 238 239 239 239 238 238 239 240 241 243 244 245 247 248 249 251 253 255 256 258 260 262 264 266 267 269 270 271 273 274 274 275 277 279 280 280 280
231 232 234 236 236 238 237 239 240 238 238 238 239 240 240 240 239 238 239 240 241 243 244 246 247 249 250 252 253 255 256 258 260 263 265 266 268 270 271 272 273 274 275 276 277 279 280 280 281
229 231 233 236 238 239 239 240 240 240 239 240 240 240 240 240 239 239 239 240 241 243 244 246 248 249 250 252 253 255 257 258 261 263 265 267 268 270 271 273 274 275 275 276 277 278 280 280 281
229 229 231 235 238 239 239 239 239 240 241 241 241 240 240 240 239 239 239 240 241 243 244 246 248 249 250 252 253 255 257 259 261 263 264 267 268 270 272 273 274 275 275 275 276 277 279 281 282
230 231 231 233 237 239 240 240 240 240 241 241 241 240 240 240 239 239 239 240 242 243 244 246 248 249 250 251 253 256 257 259 261 263 265 266 268 270 271 273 274 274 274 276 277 277 279 281 283
229 230 232 235 237 240 242 242 241 242 242 242 242 242 241 240 240 239 240 241 242 243 244 246 247 249 250 251 253 255 257 259 261 264 266 267 269 270 271 273 273 273 274 276 278 279 280 281 282
230 232 233 234 237 239 242 243 242 243 243 243 243 242 241 241 240 239 240 241 242 243 244 245 247 249 250 251 253 255 257 260 262 264 265 267 269 271 272 272 272 273 274 276 278 279 281 282 283
Height
5808 5810 5813 5815 5818 5820 5824 5829 5832 5834 5836 5838 5840 5842 5844 5847 5850 5854 5854 5854 5855 5857 5858 5860 5861 5862 5864 5865 5866 5867 5868 5869 5869 5870 5871 5872 5873 5873 5874 5875 5875 5875 5876 5876 5876 5877 5877 5877 5877
5802 5805 5808 5810 5812 5816 5821 5825 5828 5830 5832 5834 5836 5838 5841 5843 5845 5848 5849 5851 5852 5854 5856 5857 5859 5860 5861 5863 5864 5865 5866 5866 5867 5868 5869 5870 5871 5871 5872 5873 5873 5874 5874 5874 5875 5875 5875 5875 5875
5796 5799 5802 5804 5807 5812 5817 5820 5822 5824 5827 5829 5832 5834 5837 5839 5841 5844 5846 5847 5849 5851 5852 5854 5856 5857 5859 5860 5861 5862 5863 5864 5865 5866 5867 5868 5869 5869 5870 5871 5871 5872 5872 5873 5873 5873 5873 5873 5873
5791 5793 5796 5799 5802 5808 5812 5815 5817 5819 5822 5825 5827 5830 5833 5836 5838 5840 5842 5844 5846 5847 5849 5851 5852 5854 5856 5857 5859 5860 5861 5862 5863 5864 5865 5865 5866 5867 5868 5868 5869 5870 5870 5870 5870 5871 5871 5871 5871
5783 5786 5789 5792 5798 5803 5806 5809 5811 5814 5817 5820 5823 5825 5828 5831 5833 5835 5837 5839 5842 5844 5845 5847 5849 5851 5853 5854 5856 5857 5858 5859 5860 5861 5862 5863 5864 5864 5865 5866 5866 5867 5867 5868 5868 5868 5868 5868 5868
5777 5780 5783 5787 5793 5797 5800 5802 5805 5809 5812 5815 5817 5820 5823 5826 5828 5831 5833 5835 5837 5839 5842 5844 5845 5847 5849 5851 5852 5854 5855 5856 5857 5858 5859 5860 5861 5862 5862 5863 5864 5864 5864 5865 5865 5865 5865 5865 5865
5770 5773 5776 5781 5786 5790 5794 5796 5799 5802 5806 5809 5812 5815 5818 5821 5823 5826 5828 5830 5833 5835 5837 5840 5842 5843 5845 5847 5849 5850 5852 5853 5854 5855 5856 5857 5858 5859 5859 5860 5860 5861 5861 5861 5861 5862 5862 5861 5861
5762 5765 5769 5774 5779 5784 5787 5789 5792 5796 5800 5803 5806 5810 5813 5816 5818 5821 5823 5826 5828 5831 5833 5835 5837 5839 5841 5843 5845 5846 5848 5849 5850 5851 5852 5853 5854 5855 5856 5856 5857 5857 5857 5858 5858 5858 5858 5857 5857
5753 5758 5762 5768 5772 5777 5779 5782 5785 5789 5793 5797 5800 5804 5807 5810 5812 5815 5818 5821 5823 5826 5828 5830 5833 5835 5837 5839 5840 5842 5844 5845 5846 5847 5848 5849 5850 5851 5852 5852 5853 5853 5853 5854 5854 5853 5853 5853 5853
5745 5750 5756 5761 5764 5768 5771 5774 5778 5782 5786 5790 5794 5798 5801 5804 5807 5810 5812 5815 5818 5820 5823 5825 5827 5830 5832 5834 5836 5837 5839 5840 5841 5843 5844 5845 5846 5847 5847 5848 5848 5849 5849 5849 5849 5849 5849 5849 5848
5738 5743 5749 5752 5756 5760 5763 5767 5770 5774 5779 5783 5787 5791 5795 5798 5801 5804 5807 5809 5812 5814 5817 5819 5822 5824 5827 5829 5831 5832 5834 5835 5837 5838 5839 5840 5841 5842 5842 5843 5843 5844 5844 5844 5844 5844 5844 5843 5843
5730 5736 5740 5744 5748 5752 5756 5759 5763 5767 5772 5776 5780 5784 5788 5792 5795 5798 5801 5803 5806 5809 5811 5814 5816 5819 5821 5823 5825 5827 5829 5830 5832 5833 5834 5835 5836 5837 5837 5838 5838 5839 5839 5839 5839 5839 5838 5838 5837
5721 5727 5731 5735 5740 5744 5748 5752 5756 5760 5764 5769 5773 5777 5781 5785 5789 5792 5794 5797 5800 5803 5806 5808 5811 5813 5816 5818 5820 5822 5823 5825 5826 5827 5829 5830 5831 5831 5832 5832 5833 5833 5833 5833 5833 5833 5833 5832 5831
5713 5718 5722 5727 5731 5735 5740 5744 5748 5754 5757 5761 5765 5769 5774 5778 5782 5785 5788 5791 5794 5797 5799 5802 5805 5807 5810 5812 5814 5816 5817 5819 5820 5822 5823 5824 5825 5825 5826 5827 5827 5827 5827 5827 5827 5827 5826 5826 5825
5703 5708 5713 5718 5723 5727 5732 5737 5742 5746 5749 5753 5758 5762 5766 5770 5774 5778 5781 5784 5787 5790 5793 5796 5798 5801 5803 5806 5808 5810 5811 5813 5814 5816 5817 5818 5819 5819 5820 5821 5821 5821 5821 5821 5820 5820 5820 5819 5818
5693 5698 5704 5711 5715 5719 5724 5730 5735 5738 5741 5746 5750 5754 5759 5763 5767 5771 5774 5778 5781 5784 5787 5789 5792 5794 5797 5799 5801 5803 5805 5806 5808 5809 5810 5811 5812 5813 5814 5814 5814 5814 5814 5814 5813 5813 5813 5812 5811
5682 5689 5696 5703 5707 5710 5715 5722 5727 5730 5733 5738 5742 5747 5751 5755 5759 5763 5767 5770 5773 5777 5780 5782 5785 5787 5790 5792 5794 5796 5798 5800 5801 5802 5804 5805 5805 5806 5807 5807 5807 5807 5807 5807 5806 5806 5805 5805 5804
5675 5681 5687 5693 5698 5702 5706 5713 5718 5721 5725 5730 5734 5738 5743 5747 5752 5755 5759 5762 5766 5769 5773 5775 5778 5780 5783 5785 5787 5789 5791 5793 5794 5795 5796 5797 5798 5799 5799 5800 5799 5799 5799 5799 5798 5798 5797 5796 5795
5666 5671 5677 5683 5688 5692 5697 5703 5708 5712 5717 5722 5726 5730 5735 5739 5743 5747 5751 5754 5758 5762 5765 5768 5771 5773 5775 5778 5780 5782 5784 5785 5786 5788 5789 5790 5790 5791 5791 5791 5791 5791 5791 5791 5790 5789 5788 5787 5786
5655 5661 5667 5673 5678 5682 5687 5693 5699 5704 5709 5714 5718 5722 5726 5730 5734 5739 5743 5746 5750 5754 5757 5760 5763 5765 5768 5770 5772 5774 5776 5777 5779 5780 5781 5782 5782 5783 5783 5783 5783 5783 5782 5782 5781 5780 5779 5778 5777
5646 5652 5658 5663 5668 5672 5677 5683 5690 5695 5700 5705 5709 5713 5717 5722 5726 5731 5734 5738 5742 5746 5749 5752 5755 5757 5760 5762 5764 5766 5768 5769 5771 5772 5773 5773 5774 5774 5774 5774 5774 5774 5774 5773 5772 5771 5770 5769 5768
5638 5644 5649 5653 5658 5662 5668 5672 5681 5686 5691 5696 5700 5705 5709 5714 5718 5722 5726 5730 5734 5737 5741 5744 5746 5749 5751 5754 5756 5758 5760 5761 5762 5763 5764 5765 5765 5765 5766 5766 5766 5765 5765 5764 5763 5762 5760 5759 5758
5629 5635 5639 5644 5648 5653 5658 5663 5672 5677 5682 5688 5692 5696 5700 5705 5709 5714 5718 5722 5725 5729 5732 5735 5738 5741 5743 5745 5747 5749 5751 5753 5754 5754 5755 5756 5756 5756 5756 5756 5756 5756 5755 5754 5753 5752 5750 5749 5747
5620 5625 5630 5633 5637 5643 5651 5655 5662 5668 5674 5679 5683 5687 5691 5695 5700 5704 5709 5712 5716 5720 5723 5727 5729 5732 5734 5737 5739 5741 5742 5744 5745 5746 5746 5747 5747 5747 5747 5747 5746 5746 5745 5744 5743 5742 5740 5738 5737
5611 5616 5621 5624 5627 5634 5642 5645 5653 5660 5665 5670 5674 5678 5682 5686 5690 5695 5699 5703 5707 5711 5714 5718 5720 5723 5726 5728 5730 5732 5733 5735 5736 5736 5737 5737 5737 5737 5737 5737 5736 5736 5735 5734 5733 5732 5730 5729 5727
5603 5609 5614 5618 5622 5628 5632 5637 5645 5650 5655 5660 5665 5669 5672 5676 5681 5686 5690 5694 5698 5701 5705 5708 5711 5714 5716 5719 5721 5723 5724 5725 5726 5727 5727 5728 5728 5728 5727 5727 5726 5725 5725 5724 5723 5722 5720 5719 5717
5596 5600 5606 5610 5613 5618 5622 5628 5636 5641 5646 5651 5655 5659 5663 5667 5671 5676 5680 5685 5688 5692 5695 5699 5702 5704 5707 5709 5711 5713 5715 5716 5717 5718 5718 5718 5718 5718 5717 5717 5716 5715 5714 5714 5713 5711 5710 5708 5707
5589 5594 5598 5602 5605 5609 5614 5621 5627 5633 5637 5642 5646 5650 5653 5657 5662 5666 5670 5675 5678 5682 5685 5689 5692 5694 5697 5699 5701 5703 5705 5706 5707 5708 5708 5708 5708 5708 5707 5706 5705 5705 5704 5703 5702 5701 5699 5698 5695
5583 5587 5590 5594 5598 5602 5607 5615 5619 5624 5628 5632 5636 5640 5644 5648 5652 5657 5661 5665 5668 5672 5675 5679 5681 5684 5687 5689 5691 5693 5695 5696 5697 5698 5698 5698 5698 5697 5697 5696 5695 5694 5693 5692 5691 5690 5688 5686 5684
5575 5580 5584 5588 5591 5595 5600 5608 5611 5615 5619 5623 5627 5630 5634 5638 5642 5647 5651 5655 5658 5661 5665 5668 5671 5674 5676 5679 5681 5683 5684 5685 5686 5687 5687 5687 5687 5687 5686 5685 5685 5684 5683 5682 5680 5679 5677 5675 5673